User: anonymous   Login
Location: Unspecified
(53.2500°N, 0.0000°E)
Time: 05:43:03
(UTC+00:00)
Language:

Hubble Space Telescope - Orbit

View from above orbital plane
View from above orbital plane
View from above satellite
View from above satellite

Ground track
Ground track

The orbit data is extracted from the following two-line orbital elements,

1 20580U 90037B   19199.08371528  .00000330  00000-0  90979-5 0  9992
2 20580  28.4705  17.5823 0002855  81.6502 215.3868 15.09245380405336
Epoch (UTC): 18 July 2019 02:00:33
Eccentricity: 0.0002855
inclination: 28.4705°
perigee height: 536 km
apogee height: 540 km
right ascension of ascending node: 17.5823°
argument of perigee: 81.6502°
revolutions per day: 15.09245380
mean anomaly at epoch: 215.3868°
orbit number at epoch: 40533

The dashed part of the orbit path shows where the satellite is in the earth's shadow,  

DLR